Date String (YYYY-MM-DD hh:mm:ss) UTC,Instrument flags,Ambient pressure (hPa),Sample flow (lpm),Bypass flow (lpm),Sample temperature (°C),Ambient temperature (°C),ASC tube jacket temperature (°C),LED temperature (°C),Box temperature (°C),Sample RH (%),Span deviation,Mass concentration (μg/m³),Mass concentration (μg/m³),Mass concentration (μg/m³)
DateTimeUTC,F1_M11,P_M11,Q1_M11,Q2_M11,T1_M11,T2_M11,T3_M11,T4_M11,T5_M11,U1_M11,ZSPAN_M11,X0_M11,X2_M11,X1_M11
2023-04-04 00:00:00,,0811.9,5.01,0.00,24.9,23.3,00.0,33.4,26.5,15.4,0000.0,0015.66,0005.18,0003.97
2023-04-04 00:01:00,,0811.8,5.00,0.00,24.9,23.3,00.0,33.4,26.5,15.5,0000.0,0015.12,0005.18,0003.94
2023-04-04 00:02:00,,0811.8,5.00,0.00,24.9,23.3,00.0,33.3,26.5,15.4,0000.0,0015.20,0005.22,0003.94
2023-04-04 00:03:00,,0811.8,4.99,0.00,24.9,23.3,00.0,33.3,26.5,15.5,0000.0,0015.11,0005.26,0003.93
2023-04-04 00:04:00,,0811.8,5.00,0.00,24.9,23.3,00.0,33.3,26.5,15.4,0000.0,0015.18,0005.27,0003.91
2023-04-04 00:05:00,,0811.8,5.02,0.00,24.9,23.3,00.0,33.3,26.4,15.5,0000.0,0016.04,0005.28,0003.90
2023-04-04 00:06:00,,0811.7,5.00,0.00,24.8,23.2,00.0,33.3,26.5,15.5,0000.0,0016.85,0005.28,0003.89
2023-04-04 00:07:00,,0811.6,4.99,0.00,24.8,23.2,00.0,33.3,26.5,15.5,0000.0,0017.34,0005.26,0003.88
2023-04-04 00:08:00,,0811.7,5.00,0.00,24.8,23.2,00.0,33.3,26.4,15.5,0000.0,0017.64,0005.29,0003.87
2023-04-04 00:09:00,,0811.7,5.00,0.00,24.8,23.2,00.0,33.3,26.4,15.6,0000.0,0018.18,0005.26,0003.85
2023-04-04 00:10:00,,0811.6,5.01,0.00,24.8,23.2,00.0,33.3,26.4,15.5,0000.0,0017.86,0005.28,0003.85
2023-04-04 00:11:00,,0811.6,5.00,0.00,24.8,23.2,00.0,33.3,26.4,15.6,0000.0,0018.03,0005.25,0003.84
2023-04-04 00:12:00,,0811.6,5.00,0.00,24.8,23.2,00.0,33.3,26.4,15.6,0000.0,0019.69,0005.24,0003.85
2023-04-04 00:13:00,,0811.6,4.99,0.00,24.8,23.2,00.0,33.2,26.4,15.6,0000.0,0019.89,0005.18,0003.85
2023-04-04 00:14:00,,0811.6,5.02,0.00,24.8,23.1,00.0,33.2,26.4,15.6,0000.0,0020.00,0005.15,0003.84
2023-04-04 00:15:00,,0811.6,5.00,0.00,24.8,23.1,00.0,33.2,26.3,15.6,0000.0,0019.57,0005.15,0003.85
2023-04-04 00:16:00,,0811.6,4.99,0.00,24.8,23.1,00.0,33.2,26.4,15.6,0000.0,0019.25,0005.13,0003.85
2023-04-04 00:17:00,,0811.7,5.00,0.00,24.8,23.1,00.0,33.2,26.4,15.6,0000.0,0018.41,0005.10,0003.83
2023-04-04 00:18:00,,0811.6,5.01,0.00,24.7,23.1,00.0,33.2,26.3,15.6,0000.0,0017.72,0005.03,0003.82
2023-04-04 00:19:00,,0811.6,5.00,0.00,24.7,23.1,00.0,33.2,26.3,15.6,0000.0,0017.95,0005.04,0003.81
2023-04-04 00:20:00,,0811.6,4.99,0.00,24.7,23.1,00.0,33.2,26.3,15.6,0000.0,0018.81,0005.14,0003.81
2023-04-04 00:21:00,,0811.6,4.99,0.00,24.7,23.1,00.0,33.2,26.3,15.6,0000.0,0020.44,0005.15,0003.78
2023-04-04 00:22:00,,0811.6,4.99,0.00,24.7,23.1,00.0,33.2,26.3,15.6,0000.0,0020.72,0005.19,0003.78
2023-04-04 00:23:00,,0811.6,5.01,0.00,24.7,23.1,00.0,33.2,26.3,15.6,0000.0,0019.17,0005.18,0003.78
2023-04-04 00:24:00,,0811.6,5.01,0.00,24.7,23.1,00.0,33.2,26.3,15.6,0000.0,0019.26,0005.20,0003.77
2023-04-04 00:25:00,,0811.6,5.01,0.00,24.7,23.1,00.0,33.2,26.3,15.7,0000.0,0019.12,0005.22,0003.76
2023-04-04 00:26:00,,0811.7,4.99,0.00,24.7,23.1,00.0,33.2,26.3,15.6,0000.0,0019.77,0005.28,0003.75
2023-04-04 00:27:00,,0811.6,5.00,0.00,24.7,23.0,00.0,33.1,26.3,15.7,0000.0,0019.09,0005.29,0003.73
2023-04-04 00:28:00,,0811.6,5.00,0.00,24.7,23.0,00.0,33.1,26.3,15.7,0000.0,0019.61,0005.34,0003.73
2023-04-04 00:29:00,,0811.7,5.00,0.00,24.7,23.0,00.0,33.1,26.3,15.7,0000.0,0019.89,0005.37,0003.73
2023-04-04 00:30:00,,0811.7,5.01,0.00,24.6,23.0,00.0,33.1,26.2,15.7,0000.0,0019.98,0005.35,0003.72
2023-04-04 00:31:00,,0811.6,5.00,0.00,24.6,23.0,00.0,33.1,26.2,15.7,0000.0,0018.62,0005.26,0003.72
2023-04-04 00:32:00,,0811.6,4.99,0.00,24.6,23.0,00.0,33.1,26.2,15.7,0000.0,0017.16,0005.17,0003.71
2023-04-04 00:33:00,,0811.6,5.00,0.00,24.6,23.0,00.0,33.1,26.2,15.7,0000.0,0017.34,0005.14,0003.69
2023-04-04 00:34:00,,0811.6,5.00,0.00,24.6,23.0,00.0,33.1,26.2,15.7,0000.0,0017.15,0005.11,0003.69
2023-04-04 00:35:00,,0811.7,4.99,0.00,24.6,22.9,00.0,33.1,26.2,15.7,0000.0,0017.61,0005.08,0003.67
2023-04-04 00:36:00,,0811.7,5.00,0.00,24.6,23.0,00.0,33.1,26.2,15.8,0000.0,0018.11,0005.06,0003.67
2023-04-04 00:37:00,,0811.6,5.01,0.00,24.6,22.9,00.0,33.1,26.2,15.8,0000.0,0017.09,0004.95,0003.65
2023-04-04 00:38:00,,0811.6,5.00,0.00,24.6,22.9,00.0,33.1,26.2,15.8,0000.0,0017.58,0004.94,0003.65
2023-04-04 00:39:00,,0811.6,5.00,0.00,24.6,22.9,00.0,33.0,26.2,15.8,0000.0,0017.87,0004.92,0003.64
2023-04-04 00:40:00,,0811.7,4.99,0.00,24.6,22.9,00.0,33.0,26.2,15.8,0000.0,0017.83,0004.91,0003.62
2023-04-04 00:41:00,,0811.7,4.99,0.00,24.6,22.9,00.0,33.0,26.2,15.8,0000.0,0017.67,0004.95,0003.61
2023-04-04 00:42:00,,0811.7,5.01,0.00,24.5,22.9,00.0,33.0,26.2,15.8,0000.0,0017.27,0004.98,0003.61
2023-04-04 00:43:00,,0811.6,5.01,0.00,24.5,22.9,00.0,33.0,26.2,15.8,0000.0,0018.90,0005.00,0003.60
2023-04-04 00:44:00,,0811.6,4.99,0.00,24.5,22.9,00.0,33.0,26.2,15.7,0000.0,0019.05,0005.01,0003.60
2023-04-04 00:45:00,,0811.6,4.99,0.00,24.5,22.9,00.0,33.0,26.2,15.7,0000.0,0019.02,0005.06,0003.60
2023-04-04 00:46:00,,0811.6,5.00,0.00,24.5,22.9,00.0,33.0,26.1,15.8,0000.0,0018.80,0005.11,0003.60
2023-04-04 00:47:00,,0811.6,5.00,0.00,24.5,22.9,00.0,33.0,26.1,15.8,0000.0,0017.69,0005.11,0003.60
2023-04-04 00:48:00,,0811.5,5.01,0.00,24.5,22.8,00.0,33.0,26.1,15.8,0000.0,0019.42,0005.18,0003.61
2023-04-04 00:49:00,,0811.6,5.01,0.00,24.5,22.8,00.0,33.0,26.1,15.8,0000.0,0020.44,0005.19,0003.61
2023-04-04 00:50:00,,0811.6,5.00,0.00,24.5,22.8,00.0,33.0,26.0,15.8,0000.0,0020.65,0005.20,0003.62
2023-04-04 00:51:00,,0811.6,5.00,0.00,24.5,22.8,00.0,32.9,26.0,15.9,0000.0,0019.98,0005.16,0003.61
2023-04-04 00:52:00,,0811.6,4.99,0.00,24.5,22.8,00.0,32.9,26.1,15.9,0000.0,0019.43,0005.13,0003.62
2023-04-04 00:53:00,,0811.6,5.01,0.00,24.4,22.8,00.0,32.9,26.0,15.9,0000.0,0019.08,0005.11,0003.63
2023-04-04 00:54:00,,0811.6,5.00,0.00,24.4,22.8,00.0,32.9,26.0,15.8,0000.0,0019.04,0005.14,0003.64
2023-04-04 00:55:00,,0811.6,5.01,0.00,24.4,22.8,00.0,32.9,26.0,15.9,0000.0,0018.64,0005.21,0003.64
2023-04-04 00:56:00,,0811.6,5.01,0.00,24.4,22.7,00.0,32.9,26.0,15.9,0000.0,0018.71,0005.17,0003.63
2023-04-04 00:57:00,,0811.4,4.99,0.00,24.4,22.7,00.0,32.9,26.0,15.9,0000.0,0018.36,0005.08,0003.62
2023-04-04 00:58:00,,0811.4,4.99,0.00,24.4,22.7,00.0,32.9,26.0,15.9,0000.0,0019.36,0005.08,0003.62
2023-04-04 00:59:00,,0811.5,5.00,0.00,24.4,22.7,00.0,32.9,26.0,15.9,0000.0,0019.14,0005.06,0003.61
